Year,Month,Day,Hour,Minute,Value (Times are PST for temperature in C)
2011,08,16,00,00,11.00
2011,08,16,00,01,11.00
2011,08,16,00,02,11.00
2011,08,16,00,03,11.00
2011,08,16,00,04,11.00
2011,08,16,00,05,11.00
2011,08,16,00,06,11.00
2011,08,16,00,07,11.00
2011,08,16,00,08,11.00
2011,08,16,00,09,11.00
2011,08,16,00,10,11.00
2011,08,16,00,11,11.00
2011,08,16,00,12,11.00
2011,08,16,00,13,10.90
2011,08,16,00,14,10.90
2011,08,16,00,15,10.90
2011,08,16,00,16,10.90
2011,08,16,00,17,10.90
2011,08,16,00,18,10.90
2011,08,16,00,19,10.90
2011,08,16,00,20,10.90
2011,08,16,00,21,10.90
2011,08,16,00,22,10.90
2011,08,16,00,23,10.90
2011,08,16,00,24,10.80
2011,08,16,00,25,10.80
2011,08,16,00,26,10.80
2011,08,16,00,27,10.80
2011,08,16,00,28,10.80
2011,08,16,00,29,10.80
2011,08,16,00,30,10.80
2011,08,16,00,31,10.80
2011,08,16,00,32,10.80
2011,08,16,00,33,10.80
2011,08,16,00,34,10.80
2011,08,16,00,35,10.80
2011,08,16,00,36,10.80
2011,08,16,00,37,10.80
2011,08,16,00,38,10.80
2011,08,16,00,39,10.80
2011,08,16,00,40,10.80
2011,08,16,00,41,10.80
2011,08,16,00,42,10.80
2011,08,16,00,43,10.80
2011,08,16,00,44,10.70
2011,08,16,00,45,10.70
2011,08,16,00,46,10.70
2011,08,16,00,47,10.70
2011,08,16,00,48,10.70
2011,08,16,00,49,10.70
2011,08,16,00,50,10.60
2011,08,16,00,51,10.60
2011,08,16,00,52,10.60
2011,08,16,00,53,10.60
2011,08,16,00,54,10.60
2011,08,16,00,55,10.60
2011,08,16,00,56,10.60
2011,08,16,00,57,10.50
2011,08,16,00,58,10.50
2011,08,16,00,59,10.50
2011,08,16,01,00,10.50
2011,08,16,01,01,10.40
2011,08,16,01,02,10.40
2011,08,16,01,03,10.40
2011,08,16,01,04,10.40
2011,08,16,01,05,10.40
2011,08,16,01,06,10.40
2011,08,16,01,07,10.30
2011,08,16,01,08,10.30
2011,08,16,01,09,10.30
2011,08,16,01,10,10.30
2011,08,16,01,11,10.30
2011,08,16,01,12,10.30
2011,08,16,01,13,10.20
2011,08,16,01,14,10.20
2011,08,16,01,15,10.20
2011,08,16,01,16,10.20
2011,08,16,01,17,10.20
2011,08,16,01,18,10.10
2011,08,16,01,19,10.10
2011,08,16,01,20,10.10
2011,08,16,01,21,10.10
2011,08,16,01,22,10.10
2011,08,16,01,23,10.10
2011,08,16,01,24,10.00
2011,08,16,01,25,10.00
2011,08,16,01,26,10.00
2011,08,16,01,27,9.90
2011,08,16,01,28,9.90
2011,08,16,01,29,9.90
2011,08,16,01,30,9.90
2011,08,16,01,31,9.90
2011,08,16,01,32,9.90
2011,08,16,01,33,9.90
2011,08,16,01,34,9.90
2011,08,16,01,35,9.80
2011,08,16,01,36,9.80
2011,08,16,01,37,9.80
2011,08,16,01,38,9.80
2011,08,16,01,39,9.80
2011,08,16,01,40,9.80
2011,08,16,01,41,9.80
2011,08,16,01,42,9.80
2011,08,16,01,43,9.80
2011,08,16,01,44,9.80
2011,08,16,01,45,9.80
2011,08,16,01,46,9.80
2011,08,16,01,47,9.80
2011,08,16,01,48,9.80
2011,08,16,01,49,9.80
2011,08,16,01,50,9.70
2011,08,16,01,51,9.70
2011,08,16,01,52,9.70
2011,08,16,01,53,9.70
2011,08,16,01,54,9.70
2011,08,16,01,55,9.70
2011,08,16,01,56,9.70
2011,08,16,01,57,9.70
2011,08,16,01,58,9.70
2011,08,16,01,59,9.70
2011,08,16,02,00,9.70
2011,08,16,02,01,9.70
2011,08,16,02,02,9.70
2011,08,16,02,03,9.70
2011,08,16,02,04,9.70
2011,08,16,02,05,9.70
2011,08,16,02,06,9.70
2011,08,16,02,07,9.70
2011,08,16,02,08,9.60
2011,08,16,02,09,9.60
2011,08,16,02,10,9.60
2011,08,16,02,11,9.60
2011,08,16,02,12,9.70
2011,08,16,02,13,9.70
2011,08,16,02,14,9.70
2011,08,16,02,15,9.70
2011,08,16,02,16,9.60
2011,08,16,02,17,9.60
2011,08,16,02,18,9.60
2011,08,16,02,19,9.60
2011,08,16,02,20,9.60
2011,08,16,02,21,9.60
2011,08,16,02,22,9.60
2011,08,16,02,23,9.60
2011,08,16,02,24,9.60
2011,08,16,02,25,9.60
2011,08,16,02,26,9.60
2011,08,16,02,27,9.60
2011,08,16,02,28,9.60
2011,08,16,02,29,9.60
2011,08,16,02,30,9.60
2011,08,16,02,31,9.60
2011,08,16,02,32,9.60
2011,08,16,02,33,9.60
2011,08,16,02,34,9.60
2011,08,16,02,35,9.60
2011,08,16,02,36,9.60
2011,08,16,02,37,9.60
2011,08,16,02,38,9.60
2011,08,16,02,39,9.60
2011,08,16,02,40,9.60
2011,08,16,02,41,9.60
2011,08,16,02,42,9.60
2011,08,16,02,43,9.60
2011,08,16,02,44,9.60
2011,08,16,02,45,9.60
2011,08,16,02,46,9.60
2011,08,16,02,47,9.60
2011,08,16,02,48,9.60
2011,08,16,02,49,9.60
2011,08,16,02,50,9.60
2011,08,16,02,51,9.60
2011,08,16,02,52,9.60
2011,08,16,02,53,9.60
2011,08,16,02,54,9.60
2011,08,16,02,55,9.60
2011,08,16,02,56,9.60
2011,08,16,02,57,9.60
2011,08,16,02,58,9.60
2011,08,16,02,59,9.60
2011,08,16,03,00,9.60
2011,08,16,03,01,9.60
2011,08,16,03,02,9.60
2011,08,16,03,03,9.60
2011,08,16,03,04,9.60
2011,08,16,03,05,9.60
2011,08,16,03,06,9.60
2011,08,16,03,07,9.60
2011,08,16,03,08,9.60
2011,08,16,03,09,9.60
2011,08,16,03,10,9.60
2011,08,16,03,11,9.60
2011,08,16,03,12,9.60
2011,08,16,03,13,9.60
2011,08,16,03,14,9.60
2011,08,16,03,15,9.50
2011,08,16,03,16,9.50
2011,08,16,03,17,9.50
2011,08,16,03,18,9.50
2011,08,16,03,19,9.50
2011,08,16,03,20,9.40
2011,08,16,03,21,9.40
2011,08,16,03,22,9.40
2011,08,16,03,23,9.40
2011,08,16,03,24,9.40
2011,08,16,03,25,9.40
2011,08,16,03,26,9.40
2011,08,16,03,27,9.40
2011,08,16,03,28,9.40
2011,08,16,03,29,9.40
2011,08,16,03,30,9.40
2011,08,16,03,31,9.40
2011,08,16,03,32,9.40
2011,08,16,03,33,9.40
2011,08,16,03,34,9.30
2011,08,16,03,35,9.30
2011,08,16,03,36,9.30
2011,08,16,03,37,9.30
2011,08,16,03,38,9.30
2011,08,16,03,39,9.30
2011,08,16,03,40,9.30
2011,08,16,03,41,9.30
2011,08,16,03,42,9.30
2011,08,16,03,43,9.30
2011,08,16,03,44,9.30
2011,08,16,03,45,9.30
2011,08,16,03,46,9.30
2011,08,16,03,47,9.30
2011,08,16,03,48,9.20
2011,08,16,03,49,9.20
2011,08,16,03,50,9.20
2011,08,16,03,51,9.20
2011,08,16,03,52,9.20
2011,08,16,03,53,9.20
2011,08,16,03,54,9.20
2011,08,16,03,55,9.20
2011,08,16,03,56,9.20
2011,08,16,03,57,9.10
2011,08,16,03,58,9.10
2011,08,16,03,59,9.10
2011,08,16,04,00,9.10
2011,08,16,04,01,9.10
2011,08,16,04,02,9.00
2011,08,16,04,03,9.00
2011,08,16,04,04,9.00
2011,08,16,04,05,9.00
2011,08,16,04,06,9.00
2011,08,16,04,07,8.90
2011,08,16,04,08,8.90
2011,08,16,04,09,8.90
2011,08,16,04,10,8.90
2011,08,16,04,11,8.80
2011,08,16,04,12,8.80
2011,08,16,04,13,8.80
2011,08,16,04,14,8.80
2011,08,16,04,15,8.80
2011,08,16,04,16,8.80
2011,08,16,04,17,8.70
2011,08,16,04,18,8.70
2011,08,16,04,19,8.70
2011,08,16,04,20,8.70
2011,08,16,04,21,8.70
2011,08,16,04,22,8.70
2011,08,16,04,23,8.60
2011,08,16,04,24,8.60
2011,08,16,04,25,8.60
2011,08,16,04,26,8.60
2011,08,16,04,27,8.60
2011,08,16,04,28,8.60
2011,08,16,04,29,8.60
2011,08,16,04,30,8.60
2011,08,16,04,31,8.60
2011,08,16,04,32,8.60
2011,08,16,04,33,8.60
2011,08,16,04,34,8.60
2011,08,16,04,35,8.60
2011,08,16,04,36,8.60
2011,08,16,04,37,8.60
2011,08,16,04,38,8.60
2011,08,16,04,39,8.50
2011,08,16,04,40,8.50
2011,08,16,04,41,8.50
2011,08,16,04,42,8.50
2011,08,16,04,43,8.50
2011,08,16,04,44,8.40
2011,08,16,04,45,8.40
2011,08,16,04,46,8.40
2011,08,16,04,47,8.40
2011,08,16,04,48,8.40
2011,08,16,04,49,8.40
2011,08,16,04,50,8.40
2011,08,16,04,51,8.40
2011,08,16,04,52,8.30
2011,08,16,04,53,8.30
2011,08,16,04,54,8.30
2011,08,16,04,55,8.30
2011,08,16,04,56,8.40
2011,08,16,04,57,8.30
2011,08,16,04,58,8.30
2011,08,16,04,59,8.30
2011,08,16,05,00,8.30
2011,08,16,05,01,8.30
2011,08,16,05,02,8.30
2011,08,16,05,03,8.30
2011,08,16,05,04,8.30
2011,08,16,05,05,8.30
2011,08,16,05,06,8.30
2011,08,16,05,07,8.30
2011,08,16,05,08,8.30
2011,08,16,05,09,8.20
2011,08,16,05,10,8.20
2011,08,16,05,11,8.20
2011,08,16,05,12,8.20
2011,08,16,05,13,8.20
2011,08,16,05,14,8.20
2011,08,16,05,15,8.20
2011,08,16,05,16,8.20
2011,08,16,05,17,8.20
2011,08,16,05,18,8.10
2011,08,16,05,19,8.10
2011,08,16,05,20,8.10
2011,08,16,05,21,8.10
2011,08,16,05,22,8.10
2011,08,16,05,23,8.10
2011,08,16,05,24,8.10
2011,08,16,05,25,8.10
2011,08,16,05,26,8.10
2011,08,16,05,27,8.10
2011,08,16,05,28,8.10
2011,08,16,05,29,8.10
2011,08,16,05,30,8.10
2011,08,16,05,31,8.00
2011,08,16,05,32,8.00
2011,08,16,05,33,8.00
2011,08,16,05,34,8.00
2011,08,16,05,35,8.00
2011,08,16,05,36,7.90
2011,08,16,05,37,7.90
2011,08,16,05,38,7.90
2011,08,16,05,39,7.90
2011,08,16,05,40,7.90
2011,08,16,05,41,7.90
2011,08,16,05,42,7.90
2011,08,16,05,43,7.90
2011,08,16,05,44,7.80
2011,08,16,05,45,7.80
2011,08,16,05,46,7.80
2011,08,16,05,47,7.80
2011,08,16,05,48,7.80
2011,08,16,05,49,7.80
2011,08,16,05,50,7.80
2011,08,16,05,51,7.80
2011,08,16,05,52,7.80
2011,08,16,05,53,7.80
2011,08,16,05,54,7.80
2011,08,16,05,55,7.80
2011,08,16,05,56,7.80
2011,08,16,05,57,7.90
2011,08,16,05,58,7.90
2011,08,16,05,59,7.90
2011,08,16,06,00,8.00
2011,08,16,06,01,8.00
2011,08,16,06,02,8.00
2011,08,16,06,03,8.10
2011,08,16,06,04,8.10
2011,08,16,06,05,8.20
2011,08,16,06,06,8.20
2011,08,16,06,07,8.20
2011,08,16,06,08,8.20
2011,08,16,06,09,8.20
2011,08,16,06,10,8.20
2011,08,16,06,11,8.30
2011,08,16,06,12,8.30
2011,08,16,06,13,8.30
2011,08,16,06,14,8.30
2011,08,16,06,15,8.30
2011,08,16,06,16,8.30
2011,08,16,06,17,8.30
2011,08,16,06,18,8.30
2011,08,16,06,19,8.30
2011,08,16,06,20,8.30
2011,08,16,06,21,8.30
2011,08,16,06,22,8.30
2011,08,16,06,23,8.30
2011,08,16,06,24,8.30
2011,08,16,06,25,8.30
2011,08,16,06,26,8.30
2011,08,16,06,27,8.30
2011,08,16,06,28,8.30
2011,08,16,06,29,8.30
2011,08,16,06,30,8.30
2011,08,16,06,31,8.30
2011,08,16,06,32,8.20
2011,08,16,06,33,8.30
2011,08,16,06,34,8.30
2011,08,16,06,35,8.30
2011,08,16,06,36,8.30
2011,08,16,06,37,8.30
2011,08,16,06,38,8.30
2011,08,16,06,39,8.30
2011,08,16,06,40,8.30
2011,08,16,06,41,8.30
2011,08,16,06,42,8.30
2011,08,16,06,43,8.30
2011,08,16,06,44,8.30
2011,08,16,06,45,8.30
2011,08,16,06,46,8.30
2011,08,16,06,47,8.30
2011,08,16,06,48,8.30
2011,08,16,06,49,8.30
2011,08,16,06,50,8.30
2011,08,16,06,51,8.30
2011,08,16,06,52,8.30
2011,08,16,06,53,8.30
2011,08,16,06,54,8.30
2011,08,16,06,55,8.30
2011,08,16,06,56,8.30
2011,08,16,06,57,8.30
2011,08,16,06,58,8.30
2011,08,16,06,59,8.30
2011,08,16,07,00,8.40
2011,08,16,07,01,8.40
2011,08,16,07,02,8.40
2011,08,16,07,03,8.40
2011,08,16,07,04,8.40
2011,08,16,07,05,8.40
2011,08,16,07,06,8.40
2011,08,16,07,07,8.40
2011,08,16,07,08,8.40
2011,08,16,07,09,8.40
2011,08,16,07,10,8.40
2011,08,16,07,11,8.40
2011,08,16,07,12,8.40
2011,08,16,07,13,8.40
2011,08,16,07,14,8.40
2011,08,16,07,15,8.40
2011,08,16,07,16,8.40
2011,08,16,07,17,8.40
2011,08,16,07,18,8.40
2011,08,16,07,19,8.50
2011,08,16,07,20,8.50
2011,08,16,07,21,8.50
2011,08,16,07,22,8.50
2011,08,16,07,23,8.50
2011,08,16,07,24,8.60
2011,08,16,07,25,8.60
2011,08,16,07,26,8.60
2011,08,16,07,27,8.60
2011,08,16,07,28,8.60
2011,08,16,07,29,8.70
2011,08,16,07,30,8.70
2011,08,16,07,31,8.70
2011,08,16,07,32,8.70
2011,08,16,07,33,8.70
2011,08,16,07,34,8.70
2011,08,16,07,35,8.80
2011,08,16,07,36,8.80
2011,08,16,07,37,8.80
2011,08,16,07,38,8.80
2011,08,16,07,39,8.80
2011,08,16,07,40,8.90
2011,08,16,07,41,8.90
2011,08,16,07,42,8.90
2011,08,16,07,43,9.00
2011,08,16,07,44,9.10
2011,08,16,07,45,9.10
2011,08,16,07,46,9.10
2011,08,16,07,47,9.20
2011,08,16,07,48,9.20
2011,08,16,07,49,9.30
2011,08,16,07,50,9.40
2011,08,16,07,51,9.50
2011,08,16,07,52,9.50
2011,08,16,07,53,9.60
2011,08,16,07,54,9.60
2011,08,16,07,55,9.60
2011,08,16,07,56,9.70
2011,08,16,07,57,9.80
2011,08,16,07,58,9.80
2011,08,16,07,59,9.80
2011,08,16,08,00,9.90
2011,08,16,08,01,10.10
2011,08,16,08,02,10.30
2011,08,16,08,03,10.30
2011,08,16,08,04,10.40
2011,08,16,08,05,10.60
2011,08,16,08,06,10.70
2011,08,16,08,07,10.80
2011,08,16,08,08,10.80
2011,08,16,08,09,10.90
2011,08,16,08,10,11.00
2011,08,16,08,11,11.20
2011,08,16,08,12,11.40
2011,08,16,08,13,11.50
2011,08,16,08,14,11.60
2011,08,16,08,15,11.80
2011,08,16,08,16,11.80
2011,08,16,08,17,11.90
2011,08,16,08,18,12.00
2011,08,16,08,19,12.10
2011,08,16,08,20,12.30
2011,08,16,08,21,12.40
2011,08,16,08,22,12.50
2011,08,16,08,23,12.60
2011,08,16,08,24,12.80
2011,08,16,08,25,12.90
2011,08,16,08,26,13.00
2011,08,16,08,27,13.10
2011,08,16,08,28,13.30
2011,08,16,08,29,13.40
2011,08,16,08,30,13.60
2011,08,16,08,31,13.70
2011,08,16,08,32,13.80
2011,08,16,08,33,13.90
2011,08,16,08,34,14.00
2011,08,16,08,35,14.10
2011,08,16,08,36,14.20
2011,08,16,08,37,14.30
2011,08,16,08,38,14.30
2011,08,16,08,39,14.40
2011,08,16,08,40,14.60
2011,08,16,08,41,14.70
2011,08,16,08,42,14.70
2011,08,16,08,43,14.80
2011,08,16,08,44,14.90
2011,08,16,08,45,15.00
2011,08,16,08,46,15.00
2011,08,16,08,47,15.00
2011,08,16,08,48,15.00
2011,08,16,08,49,15.20
2011,08,16,08,50,15.30
2011,08,16,08,51,15.30
2011,08,16,08,52,15.40
2011,08,16,08,53,15.50
2011,08,16,08,54,15.60
2011,08,16,08,55,15.70
2011,08,16,08,56,15.70
2011,08,16,08,57,15.80
2011,08,16,08,58,15.80
2011,08,16,08,59,15.90
2011,08,16,09,00,15.90
2011,08,16,09,01,16.00
2011,08,16,09,02,16.00
2011,08,16,09,03,16.10
2011,08,16,09,04,16.10
2011,08,16,09,05,16.20
2011,08,16,09,06,16.20
2011,08,16,09,07,16.20
2011,08,16,09,08,16.20
2011,08,16,09,09,16.30
2011,08,16,09,10,16.30
2011,08,16,09,11,16.30
2011,08,16,09,12,16.40
2011,08,16,09,13,16.40
2011,08,16,09,14,16.40
2011,08,16,09,15,16.50
2011,08,16,09,16,16.50
2011,08,16,09,17,16.50
2011,08,16,09,18,16.50
2011,08,16,09,19,16.50
2011,08,16,09,20,16.60
2011,08,16,09,21,16.60
2011,08,16,09,22,16.60
2011,08,16,09,23,16.70
2011,08,16,09,24,16.70
2011,08,16,09,25,16.70
2011,08,16,09,26,16.80
2011,08,16,09,27,16.80
2011,08,16,09,28,16.80
2011,08,16,09,29,16.80
2011,08,16,09,30,16.90
2011,08,16,09,31,16.90
2011,08,16,09,32,16.90
2011,08,16,09,33,16.90
2011,08,16,09,34,16.90
2011,08,16,09,35,16.90
2011,08,16,09,36,17.00
2011,08,16,09,37,17.00
2011,08,16,09,38,17.00
2011,08,16,09,39,17.10
2011,08,16,09,40,17.10
2011,08,16,09,41,17.10
2011,08,16,09,42,17.20
2011,08,16,09,43,17.20
2011,08,16,09,44,17.20
2011,08,16,09,45,17.20
2011,08,16,09,46,17.20
2011,08,16,09,47,17.20
2011,08,16,09,48,17.30
2011,08,16,09,49,17.30
2011,08,16,09,50,17.30
2011,08,16,09,51,17.30
2011,08,16,09,52,17.40
2011,08,16,09,53,17.40
2011,08,16,09,54,17.40
2011,08,16,09,55,17.40
2011,08,16,09,56,17.50
2011,08,16,09,57,17.50
2011,08,16,09,58,17.60
2011,08,16,09,59,17.60
2011,08,16,10,00,17.60
2011,08,16,10,01,17.70
2011,08,16,10,02,17.70
2011,08,16,10,03,17.70
2011,08,16,10,04,17.70
2011,08,16,10,05,17.80
2011,08,16,10,06,17.80
2011,08,16,10,07,17.80
2011,08,16,10,08,17.90
2011,08,16,10,09,17.90
2011,08,16,10,10,17.90
2011,08,16,10,11,17.90
2011,08,16,10,12,17.90
2011,08,16,10,13,17.90
2011,08,16,10,14,17.90
2011,08,16,10,15,17.90
2011,08,16,10,16,18.00
2011,08,16,10,17,18.00
2011,08,16,10,18,18.10
2011,08,16,10,19,18.10
2011,08,16,10,20,18.20
2011,08,16,10,21,18.20
2011,08,16,10,22,18.20
2011,08,16,10,23,18.20
2011,08,16,10,24,18.20
2011,08,16,10,25,18.20
2011,08,16,10,26,18.20
2011,08,16,10,27,18.20
2011,08,16,10,28,18.20
2011,08,16,10,29,18.20
2011,08,16,10,30,18.30
2011,08,16,10,31,18.30
2011,08,16,10,32,18.30
2011,08,16,10,33,18.40
2011,08,16,10,34,18.40
2011,08,16,10,35,18.40
2011,08,16,10,36,18.50
2011,08,16,10,37,18.50
2011,08,16,10,38,18.60
2011,08,16,10,39,18.60
2011,08,16,10,40,18.60
2011,08,16,10,41,18.60
2011,08,16,10,42,18.60
2011,08,16,10,43,18.60
2011,08,16,10,44,18.60
2011,08,16,10,45,18.60
2011,08,16,10,46,18.60
2011,08,16,10,47,18.60
2011,08,16,10,48,18.60
2011,08,16,10,49,18.60
2011,08,16,10,50,18.60
2011,08,16,10,51,18.60
2011,08,16,10,52,18.60
2011,08,16,10,53,18.70
2011,08,16,10,54,18.70
2011,08,16,10,55,18.70
2011,08,16,10,56,18.80
2011,08,16,10,57,18.80
2011,08,16,10,58,18.80
2011,08,16,10,59,18.80
2011,08,16,11,00,18.90
2011,08,16,11,01,18.90
2011,08,16,11,02,18.90
2011,08,16,11,03,18.90
2011,08,16,11,04,19.00
2011,08,16,11,05,19.00
2011,08,16,11,06,19.00
2011,08,16,11,07,18.90
2011,08,16,11,08,18.90
2011,08,16,11,09,18.90
2011,08,16,11,10,19.00
2011,08,16,11,11,19.00
2011,08,16,11,12,19.00
2011,08,16,11,13,19.00
2011,08,16,11,14,19.00
2011,08,16,11,15,19.00
2011,08,16,11,16,19.10
2011,08,16,11,17,19.10
2011,08,16,11,18,19.10
2011,08,16,11,19,19.10
2011,08,16,11,20,19.20
2011,08,16,11,21,19.20
2011,08,16,11,22,19.30
2011,08,16,11,23,19.30
2011,08,16,11,24,19.40
2011,08,16,11,25,19.40
2011,08,16,11,26,19.50
2011,08,16,11,27,19.50
2011,08,16,11,28,19.50
2011,08,16,11,29,19.60
2011,08,16,11,30,19.60
2011,08,16,11,31,19.60
2011,08,16,11,32,19.60
2011,08,16,11,33,19.70
2011,08,16,11,34,19.70
2011,08,16,11,35,19.70
2011,08,16,11,36,19.70
2011,08,16,11,37,19.70
2011,08,16,11,38,19.70
2011,08,16,11,39,19.70
2011,08,16,11,40,19.70
2011,08,16,11,41,19.70
2011,08,16,11,42,19.70
2011,08,16,11,43,19.70
2011,08,16,11,44,19.70
2011,08,16,11,45,19.70
2011,08,16,11,46,19.70
2011,08,16,11,47,19.80
2011,08,16,11,48,19.80
2011,08,16,11,49,19.80
2011,08,16,11,50,19.80
2011,08,16,11,51,19.90
2011,08,16,11,52,19.90
2011,08,16,11,53,20.00
2011,08,16,11,54,20.10
2011,08,16,11,55,20.10
2011,08,16,11,56,20.20
2011,08,16,11,57,20.20
2011,08,16,11,58,20.20
2011,08,16,11,59,20.30
2011,08,16,12,00,20.40
2011,08,16,12,01,20.40
2011,08,16,12,02,20.40
2011,08,16,12,03,20.50
2011,08,16,12,04,20.50
2011,08,16,12,05,20.60
2011,08,16,12,06,20.70
2011,08,16,12,07,20.80
2011,08,16,12,08,20.80
2011,08,16,12,09,20.90
2011,08,16,12,10,21.00
2011,08,16,12,11,21.00
2011,08,16,12,12,21.10
2011,08,16,12,13,21.10
2011,08,16,12,14,21.20
2011,08,16,12,15,21.20
2011,08,16,12,16,21.30
2011,08,16,12,17,21.30
2011,08,16,12,18,21.30
2011,08,16,12,19,21.40
2011,08,16,12,20,21.40
2011,08,16,12,21,21.40
2011,08,16,12,22,21.40
2011,08,16,12,23,21.30
2011,08,16,12,24,21.20
2011,08,16,12,25,21.20
2011,08,16,12,26,21.20
2011,08,16,12,27,21.20
2011,08,16,12,28,21.20
2011,08,16,12,29,21.20
2011,08,16,12,30,21.30
2011,08,16,12,31,21.30
2011,08,16,12,32,21.40
2011,08,16,12,33,21.50
2011,08,16,12,34,21.60
2011,08,16,12,35,21.70
2011,08,16,12,36,21.80
2011,08,16,12,37,21.80
2011,08,16,12,38,21.80
2011,08,16,12,39,21.80
2011,08,16,12,40,21.80
2011,08,16,12,41,21.70
2011,08,16,12,42,21.70
2011,08,16,12,43,21.80
2011,08,16,12,44,21.80
2011,08,16,12,45,21.70
2011,08,16,12,46,21.70
2011,08,16,12,47,21.60
2011,08,16,12,48,21.60
2011,08,16,12,49,21.70
2011,08,16,12,50,21.70
2011,08,16,12,51,21.70
2011,08,16,12,52,21.70
2011,08,16,12,53,21.70
2011,08,16,12,54,21.60
2011,08,16,12,55,21.60
2011,08,16,12,56,21.60
2011,08,16,12,57,21.60
2011,08,16,12,58,21.70
2011,08,16,12,59,21.70
2011,08,16,13,00,21.80
2011,08,16,13,01,21.90
2011,08,16,13,02,22.00
2011,08,16,13,03,22.00
2011,08,16,13,04,22.10
2011,08,16,13,05,22.10
2011,08,16,13,06,22.10
2011,08,16,13,07,22.10
2011,08,16,13,08,22.00
2011,08,16,13,09,22.00
2011,08,16,13,10,22.00
2011,08,16,13,11,22.00
2011,08,16,13,12,22.10
2011,08,16,13,13,22.10
2011,08,16,13,14,22.10
2011,08,16,13,15,22.10
2011,08,16,13,16,22.00
2011,08,16,13,17,21.90
2011,08,16,13,18,22.00
2011,08,16,13,19,22.10
2011,08,16,13,20,22.10
2011,08,16,13,21,22.20
2011,08,16,13,22,22.30
2011,08,16,13,23,22.40
2011,08,16,13,24,22.60
2011,08,16,13,25,22.70
2011,08,16,13,26,22.70
2011,08,16,13,27,22.80
2011,08,16,13,28,22.70
2011,08,16,13,29,22.60
2011,08,16,13,30,22.40
2011,08,16,13,31,22.20
2011,08,16,13,32,22.10
2011,08,16,13,33,21.90
2011,08,16,13,34,21.80
2011,08,16,13,35,21.70
2011,08,16,13,36,21.70
2011,08,16,13,37,21.80
2011,08,16,13,38,21.90
2011,08,16,13,39,22.10
2011,08,16,13,40,22.20
2011,08,16,13,41,22.20
2011,08,16,13,42,22.10
2011,08,16,13,43,22.10
2011,08,16,13,44,22.10
2011,08,16,13,45,22.10
2011,08,16,13,46,22.00
2011,08,16,13,47,21.90
2011,08,16,13,48,21.90
2011,08,16,13,49,21.90
2011,08,16,13,50,21.90
2011,08,16,13,51,21.90
2011,08,16,13,52,22.00
2011,08,16,13,53,22.10
2011,08,16,13,54,22.20
2011,08,16,13,55,22.20
2011,08,16,13,56,22.20
2011,08,16,13,57,22.20
2011,08,16,13,58,22.30
2011,08,16,13,59,22.30
2011,08,16,14,00,22.40
2011,08,16,14,01,22.50
2011,08,16,14,02,22.50
2011,08,16,14,03,22.60
2011,08,16,14,04,22.60
2011,08,16,14,05,22.60
2011,08,16,14,06,22.60
2011,08,16,14,07,22.50
2011,08,16,14,08,22.40
2011,08,16,14,09,22.30
2011,08,16,14,10,22.30
2011,08,16,14,11,22.20
2011,08,16,14,12,22.20
2011,08,16,14,13,22.30
2011,08,16,14,14,22.30
2011,08,16,14,15,22.40
2011,08,16,14,16,22.30
2011,08,16,14,17,22.30
2011,08,16,14,18,22.30
2011,08,16,14,19,22.30
2011,08,16,14,20,22.30
2011,08,16,14,21,22.30
2011,08,16,14,22,22.30
2011,08,16,14,23,22.30
2011,08,16,14,24,22.40
2011,08,16,14,25,22.50
2011,08,16,14,26,22.60
2011,08,16,14,27,22.70
2011,08,16,14,28,22.80
2011,08,16,14,29,22.90
2011,08,16,14,30,22.90
2011,08,16,14,31,22.90
2011,08,16,14,32,22.80
2011,08,16,14,33,22.80
2011,08,16,14,34,22.80
2011,08,16,14,35,22.70
2011,08,16,14,36,22.60
2011,08,16,14,37,22.60
2011,08,16,14,38,22.60
2011,08,16,14,39,22.60
2011,08,16,14,40,22.60
2011,08,16,14,41,22.60
2011,08,16,14,42,22.60
2011,08,16,14,43,22.60
2011,08,16,14,44,22.50
2011,08,16,14,45,22.50
2011,08,16,14,46,22.40
2011,08,16,14,47,22.40
2011,08,16,14,48,22.40
2011,08,16,14,49,22.40
2011,08,16,14,50,22.40
2011,08,16,14,51,22.40
2011,08,16,14,52,22.40
2011,08,16,14,53,22.40
2011,08,16,14,54,22.40
2011,08,16,14,55,22.40
2011,08,16,14,56,22.40
2011,08,16,14,57,22.30
2011,08,16,14,58,22.20
2011,08,16,14,59,22.20
2011,08,16,15,00,22.10
2011,08,16,15,01,22.10
2011,08,16,15,02,22.10
2011,08,16,15,03,22.10
2011,08,16,15,04,22.10
2011,08,16,15,05,22.20
2011,08,16,15,06,22.20
2011,08,16,15,07,22.20
2011,08,16,15,08,22.20
2011,08,16,15,09,22.20
2011,08,16,15,10,22.20
2011,08,16,15,11,22.20
2011,08,16,15,12,22.20
2011,08,16,15,13,22.20
2011,08,16,15,14,22.20
2011,08,16,15,15,22.20
2011,08,16,15,16,22.10
2011,08,16,15,17,22.10
2011,08,16,15,18,22.00
2011,08,16,15,19,21.90
2011,08,16,15,20,21.90
2011,08,16,15,21,21.90
2011,08,16,15,22,21.90
2011,08,16,15,23,21.90
2011,08,16,15,24,21.90
2011,08,16,15,25,21.90
2011,08,16,15,26,21.90
2011,08,16,15,27,21.80
2011,08,16,15,28,21.80
2011,08,16,15,29,21.80
2011,08,16,15,30,21.70
2011,08,16,15,31,21.70
2011,08,16,15,32,21.60
2011,08,16,15,33,21.60
2011,08,16,15,34,21.60
2011,08,16,15,35,21.60
2011,08,16,15,36,21.60
2011,08,16,15,37,21.60
2011,08,16,15,38,21.50
2011,08,16,15,39,21.50
2011,08,16,15,40,21.50
2011,08,16,15,41,21.50
2011,08,16,15,42,21.50
2011,08,16,15,43,21.40
2011,08,16,15,44,21.40
2011,08,16,15,45,21.40
2011,08,16,15,46,21.40
2011,08,16,15,47,21.40
2011,08,16,15,48,21.40
2011,08,16,15,49,21.50
2011,08,16,15,50,21.50
2011,08,16,15,51,21.50
2011,08,16,15,52,21.50
2011,08,16,15,53,21.50
2011,08,16,15,54,21.50
2011,08,16,15,55,21.50
2011,08,16,15,56,21.40
2011,08,16,15,57,21.40
2011,08,16,15,58,21.40
2011,08,16,15,59,21.40
2011,08,16,16,00,21.40
2011,08,16,16,01,21.50
2011,08,16,16,02,21.50
2011,08,16,16,03,21.50
2011,08,16,16,04,21.40
2011,08,16,16,05,21.40
2011,08,16,16,06,21.40
2011,08,16,16,07,21.40
2011,08,16,16,08,21.40
2011,08,16,16,09,21.40
2011,08,16,16,10,21.30
2011,08,16,16,11,21.30
2011,08,16,16,12,21.30
2011,08,16,16,13,21.30
2011,08,16,16,14,21.30
2011,08,16,16,15,21.30
2011,08,16,16,16,21.30
2011,08,16,16,17,21.20
2011,08,16,16,18,21.20
2011,08,16,16,19,21.20
2011,08,16,16,20,21.20
2011,08,16,16,21,21.20
2011,08,16,16,22,21.20
2011,08,16,16,23,21.30
2011,08,16,16,24,21.30
2011,08,16,16,25,21.30
2011,08,16,16,26,21.30
2011,08,16,16,27,21.30
2011,08,16,16,28,21.30
2011,08,16,16,29,21.30
2011,08,16,16,30,21.30
2011,08,16,16,31,21.30
2011,08,16,16,32,21.30
2011,08,16,16,33,21.30
2011,08,16,16,34,21.30
2011,08,16,16,35,21.30
2011,08,16,16,36,21.30
2011,08,16,16,37,21.30
2011,08,16,16,38,21.30
2011,08,16,16,39,21.30
2011,08,16,16,40,21.30
2011,08,16,16,41,21.30
2011,08,16,16,42,21.30
2011,08,16,16,43,21.30
2011,08,16,16,44,21.30
2011,08,16,16,45,21.30
2011,08,16,16,46,21.40
2011,08,16,16,47,21.40
2011,08,16,16,48,21.40
2011,08,16,16,49,21.40
2011,08,16,16,50,21.40
2011,08,16,16,51,21.40
2011,08,16,16,52,21.40
2011,08,16,16,53,21.40
2011,08,16,16,54,21.40
2011,08,16,16,55,21.40
2011,08,16,16,56,21.40
2011,08,16,16,57,21.30
2011,08,16,16,58,21.30
2011,08,16,16,59,21.30
2011,08,16,17,00,21.30
2011,08,16,17,01,21.30
2011,08,16,17,02,21.30
2011,08,16,17,03,21.30
2011,08,16,17,04,21.20
2011,08,16,17,05,21.20
2011,08,16,17,06,21.20
2011,08,16,17,07,21.20
2011,08,16,17,08,21.20
2011,08,16,17,09,21.20
2011,08,16,17,10,21.20
2011,08,16,17,11,21.20
2011,08,16,17,12,21.10
2011,08,16,17,13,21.10
2011,08,16,17,14,21.10
2011,08,16,17,15,21.10
2011,08,16,17,16,21.10
2011,08,16,17,17,21.10
2011,08,16,17,18,21.10
2011,08,16,17,19,21.10
2011,08,16,17,20,21.10
2011,08,16,17,21,21.10
2011,08,16,17,22,21.10
2011,08,16,17,23,21.10
2011,08,16,17,24,21.10
2011,08,16,17,25,21.10
2011,08,16,17,26,21.10
2011,08,16,17,27,21.10
2011,08,16,17,28,21.10
2011,08,16,17,29,21.10
2011,08,16,17,30,21.10
2011,08,16,17,31,21.00
2011,08,16,17,32,21.00
2011,08,16,17,33,21.00
2011,08,16,17,34,21.00
2011,08,16,17,35,20.90
2011,08,16,17,36,20.90